Flag for India Past Weather in New Okhla Industrial Development Authority, Uttar Pradesh, India — Yesterday and Last 2 Weeks

Now
84 °F

Fog.


Feels Like: 98 °F
Forecast: 82 / 95 °F
Wind: No wind

Location: New Delhi Palam Airport

Current Time: Aug 26, 2016 at 12:19:41 AM

Latest Report: Aug 25, 2016 at 11:30 PM


Visibility: 2 mi

Pressure: 29.71 "Hg

Humidity: 89%

Dew Point: 81 °F

Location of New Okhla Industrial Development AuthorityLocation

Past Weather in New Okhla Industrial Development Authority — Graph

°F

New Okhla Industrial Development Authority Temperature Yesterday

Maximum temperature yesterday: 93 °F (at 4:00 PM)
Minimum temperature yesterday: 81 °F (at 5:00 AM)
Average temperature yesterday: 85 °F

High & Low Weather Summary for the Past Weeks

 TemperatureHumidityPressure
High95 °F (Aug 15, 3:30 PM)100% (Aug 11, 3:00 AM)29.74 "Hg (Aug 11, 3:00 AM)
Low79 °F (Aug 13, 1:30 AM)53% (Aug 22, 2:00 PM)29.42 "Hg (Aug 16, 6:00 PM)
Average86 °F79%29.59 "Hg
* Reported Aug 10 10:30 PM — Aug 25 11:00 PM, New Okhla Industrial Development Authority, Weather by CustomWeather, © 2016

Note: Actual official high and low records may vary slightly from our data, if they occured in-between our weather recording intervals... More about our weather records

Advertising

New Okhla Industrial Development Authority Weather History for the Previous 24 Hours

Scroll right to see more
 ConditionsComfort  
Time TempWeatherWind HumidityBarometerVisibility
11:00 PM
Thu, Aug 25
84 °FFog.No wind89%29.71 "Hg2 mi
10:30 PM84 °FFog.No wind89%29.71 "Hg2 mi
10:00 PM84 °FFog.3 mph89%29.71 "Hg2 mi
9:30 PM84 °FFog.No wind89%29.71 "Hg2 mi
9:00 PM84 °FFog.No wind89%29.71 "Hg2 mi
8:30 PM84 °FFog.3 mph89%29.68 "Hg2 mi
8:00 PM84 °FFog.No wind89%29.68 "Hg2 mi
7:30 PM84 °FFog.No wind89%29.68 "Hg2 mi
7:00 PM84 °FFog.3 mph84%29.65 "Hg2 mi
6:30 PM84 °FFog.5 mph84%29.65 "Hg2 mi
6:00 PM84 °FFog.3 mph84%29.65 "Hg2 mi
5:30 PM84 °FFog.5 mph84%29.65 "Hg2 mi
5:00 PM86 °FLight rain. More clouds than sun.7 mph84%29.65 "Hg1 mi
4:30 PM86 °FLight rain. Broken clouds.9 mph84%29.65 "Hg1 mi
4:00 PM93 °FScattered clouds.5 mph63%29.65 "Hg4 mi
3:30 PM91 °FScattered clouds.5 mph67%29.65 "Hg4 mi
3:00 PM91 °FScattered clouds.6 mph63%29.65 "Hg4 mi
2:30 PM91 °FScattered clouds.6 mph67%29.68 "Hg4 mi
2:00 PM91 °FScattered clouds.6 mph67%29.68 "Hg4 mi
1:30 PM91 °FScattered clouds.8 mph67%29.71 "Hg4 mi
1:00 PM91 °FScattered clouds.7 mph67%29.71 "Hg4 mi
12:30 PM91 °FScattered clouds.9 mph67%29.71 "Hg4 mi
12:00 PM90 °FScattered clouds.10 mph71%29.71 "Hg3 mi
11:30 AM90 °FScattered clouds.8 mph71%29.74 "Hg2 mi
10:30 AM88 °FScattered clouds.6 mph75%29.74 "Hg2 mi
10:00 AM86 °FFog.7 mph79%29.74 "Hg1 mi
9:30 AM86 °FFog.6 mph79%29.74 "Hg1 mi
9:00 AM86 °FFog.6 mph79%29.74 "Hg1 mi
8:30 AM84 °FFog.6 mph89%29.74 "Hg1 mi
8:00 AM84 °FFog.6 mph89%29.74 "Hg1 mi
7:30 AM82 °FFog.6 mph94%29.74 "Hg1 mi
7:00 AM82 °FFog.6 mph94%29.71 "Hg2 mi
6:30 AM82 °FFog.7 mph94%29.71 "Hg2 mi
6:00 AM81 °FFog.6 mph100%29.68 "Hg2 mi
5:30 AM81 °FFog.6 mph100%29.68 "Hg2 mi
5:00 AM81 °FFog.6 mph100%29.68 "Hg2 mi
4:30 AM82 °FFog.6 mph94%29.68 "Hg2 mi
4:00 AM82 °FFog.6 mph94%29.65 "Hg2 mi
3:30 AM82 °FFog.6 mph89%29.65 "Hg2 mi
3:00 AM82 °FFog.6 mph89%29.65 "Hg2 mi
2:30 AM82 °FFog.5 mph89%29.65 "Hg2 mi
2:00 AM82 °FFog.7 mph89%29.65 "Hg2 mi
1:30 AM82 °FFog.7 mph89%29.65 "Hg2 mi
12:30 AM82 °FFog.5 mph89%29.68 "Hg2 mi
12:00 AM82 °FFog.5 mph89%29.68 "Hg2 mi
Weather by CustomWeather, © 2016

See weather overviewHow to use our weather pages